HG8LXL-2 Weather Reports


time (UTC)temp
F
wind
direction
speed
knots
gust
knots
rain 1hr
in
rain 24hr
in
rain mn
in
humidity
%
barometer
mb
20260507235004 72 0.0 0.0 0.00 0.00 0.00 64 1012.2
20260507234504 72 0.0 0.0 0.00 0.00 0.00 64 1012.1
20260507234004 72 0.0 0.0 0.00 0.00 0.00 63 1012.3
20260507233504 72 0.0 0.0 0.00 0.00 0.00 64 1012.4
20260507233004 73 0.0 0.0 0.00 0.00 0.00 63 1012.3
20260507232504 73 0.0 0.0 0.00 0.00 0.00 63 1012.3
20260507232004 76 0.0 0.0 0.00 0.00 0.00 59 1012.4
20260507231504 71 0.0 0.0 0.00 0.00 0.00 67 1012.5
20260507231004 72 0.0 0.0 0.00 0.00 0.00 67 1012.5
20260507230504 72 0.0 0.0 0.00 0.00 0.00 66 1012.5
20260507230004 71 0.0 0.0 0.00 0.00 0.00 67 1012.4
20260507225504 71 0.0 0.0 0.00 0.00 0.00 70 1012.4
20260507225004 71 0.0 0.0 0.00 0.00 0.00 68 1012.5
20260507224504 73 0.0 0.0 0.00 0.00 0.00 64 1012.5
20260507224007 72 0.0 0.0 0.00 0.00 0.00 65 1012.5
20260507223504 72 0.0 0.0 0.00 0.00 0.00 66 1012.5
20260507223004 72 0.0 0.0 0.00 0.00 0.00 67 1012.6
20260507222504 71 0.0 0.0 0.00 0.00 0.00 67 1012.5
20260507222004 71 0.0 0.0 0.00 0.00 0.00 70 1012.5
20260507221504 71 0.0 0.0 0.00 0.00 0.00 67 1012.5
20260507221004 71 0.0 0.0 0.00 0.00 0.00 68 1012.4
20260507220504 72 0.0 0.0 0.00 0.00 0.00 66 1012.3
20260507220004 72 0.0 0.0 0.00 0.00 0.00 67 1012.4
20260507215504 72 0.0 0.0 0.00 0.00 0.00 66 1012.5
20260507215004 72 0.0 0.0 0.00 0.00 0.00 65 1012.4
20260507214506 72 0.0 0.0 0.00 0.00 0.00 67 1012.4
20260507214004 72 0.0 0.0 0.00 0.00 0.00 67 1012.4
20260507213504 72 0.0 0.0 0.00 0.00 0.00 66 1012.4
20260507213004 72 0.0 0.0 0.00 0.00 0.00 66 1012.4
20260507212504 72 0.0 0.0 0.00 0.00 0.00 66 1012.3
20260507212004 72 0.0 0.0 0.00 0.00 0.00 67 1012.2
20260507211504 71 0.0 0.0 0.00 0.00 0.00 69 1012.2
20260507211004 72 0.0 0.0 0.00 0.00 0.00 68 1012.2
20260507210504 72 0.0 0.0 0.00 0.00 0.00 65 1012.1
20260507210004 73 0.0 0.0 0.00 0.00 0.00 64 1012.1
20260507205504 73 0.0 0.0 0.00 0.00 0.00 65 1012.0
20260507205004 73 0.0 0.0 0.00 0.00 0.00 64 1012.0
20260507204504 73 0.0 0.0 0.00 0.00 0.00 63 1012.0
20260507204006 73 0.0 0.0 0.00 0.00 0.00 63 1012.0
20260507203504 73 0.0 0.0 0.00 0.00 0.00 64 1012.0
20260507203004 72 0.0 0.0 0.00 0.00 0.00 65 1012.0
20260507202504 72 0.0 0.0 0.00 0.00 0.00 67 1011.9
20260507202004 72 0.0 0.0 0.00 0.00 0.00 66 1011.8
20260507201504 72 0.0 0.0 0.00 0.00 0.00 66 1011.8
20260507201004 73 0.0 0.0 0.00 0.00 0.00 66 1011.8
20260507200504 72 0.0 0.0 0.00 0.00 0.00 67 1011.8
20260507200004 72 0.0 0.0 0.00 0.00 0.00 67 1011.8
20260507195504 72 0.0 0.0 0.00 0.00 0.00 67 1011.8
20260507195004 72 0.0 0.0 0.00 0.00 0.00 69 1011.8
20260507194504 72 0.0 0.0 0.00 0.00 0.00 67 1011.8
20260507194004 72 0.0 0.0 0.00 0.00 0.00 66 1011.9
20260507193504 72 0.0 0.0 0.00 0.00 0.00 65 1011.7
20260507193004 72 0.0 0.0 0.00 0.00 0.00 64 1011.6
20260507192504 73 0.0 0.0 0.00 0.00 0.00 63 1011.6
20260507192004 73 0.0 0.0 0.00 0.00 0.00 63 1011.6
20260507191504 73 0.0 0.0 0.00 0.00 0.00 64 1011.5
20260507191004 73 0.0 0.0 0.00 0.00 0.00 65 1011.5
20260507190504 73 0.0 0.0 0.00 0.00 0.00 65 1011.5
20260507190005 73 0.0 0.0 0.00 0.00 0.00 64 1011.4
20260507185504 73 0.0 0.0 0.00 0.00 0.00 63 1011.3
20260507185004 74 0.0 0.0 0.00 0.00 0.00 61 1011.2
20260507184504 73 0.0 0.0 0.00 0.00 0.00 63 1011.2
20260507184004 73 0.0 0.0 0.00 0.00 0.00 63 1011.1
20260507183504 74 0.0 0.0 0.00 0.00 0.00 63 1011.1
20260507183004 74 0.0 0.0 0.00 0.00 0.00 62 1011.0
20260507182504 73 0.0 0.0 0.00 0.00 0.00 63 1011.0
20260507182004 73 0.0 0.0 0.00 0.00 0.00 62 1011.0
20260507181504 74 0.0 0.0 0.00 0.00 0.00 62 1011.0
20260507181004 73 0.0 0.0 0.00 0.00 0.00 63 1010.9
20260507180504 73 0.0 0.0 0.00 0.00 0.00 64 1010.9
20260507180004 73 0.0 0.0 0.00 0.00 0.00 64 1010.9
20260507175504 73 0.0 0.0 0.00 0.00 0.00 64 1010.8
20260507175004 73 0.0 0.0 0.00 0.00 0.00 64 1010.8
20260507174504 73 0.0 0.0 0.00 0.00 0.00 65 1010.8
20260507174004 73 0.0 0.0 0.00 0.00 0.00 63 1010.7
20260507173504 73 0.0 0.0 0.00 0.00 0.00 65 1010.8
20260507173004 73 0.0 0.0 0.00 0.00 0.00 65 1010.8
20260507172504 73 0.0 0.0 0.00 0.00 0.00 66 1010.7
20260507172004 73 0.0 0.0 0.00 0.00 0.00 67 1010.8
20260507171504 74 0.0 0.0 0.00 0.00 0.00 65 1010.8
20260507171004 74 0.0 0.0 0.00 0.00 0.00 64 1010.8
20260507170504 74 0.0 0.0 0.00 0.00 0.00 64 1010.7
20260507170004 74 0.0 0.0 0.00 0.00 0.00 65 1010.8
20260507165504 74 0.0 0.0 0.00 0.00 0.00 64 1010.7
20260507165004 74 0.0 0.0 0.00 0.00 0.00 65 1010.7
20260507164504 74 0.0 0.0 0.00 0.00 0.00 66 1010.8
20260507164004 74 0.0 0.0 0.00 0.00 0.00 64 1010.7
20260507163504 75 0.0 0.0 0.00 0.00 0.00 62 1010.6
20260507163004 75 0.0 0.0 0.00 0.00 0.00 60 1010.6
20260507162504 75 0.0 0.0 0.00 0.00 0.00 61 1010.6
20260507162004 74 0.0 0.0 0.00 0.00 0.00 63 1010.7
20260507161504 74 0.0 0.0 0.00 0.00 0.00 64 1010.7
20260507161004 74 0.0 0.0 0.00 0.00 0.00 63 1010.7
20260507160504 74 0.0 0.0 0.00 0.00 0.00 63 1010.7
20260507160004 74 0.0 0.0 0.00 0.00 0.00 64 1010.7
20260507155504 74 0.0 0.0 0.00 0.00 0.00 63 1010.8
20260507155004 74 0.0 0.0 0.00 0.00 0.00 63 1010.7
20260507154504 75 0.0 0.0 0.00 0.00 0.00 61 1010.7
20260507154004 75 0.0 0.0 0.00 0.00 0.00 62 1010.7
20260507153505 74 0.0 0.0 0.00 0.00 0.00 62 1010.8
20260507153004 74 0.0 0.0 0.00 0.00 0.00 64 1010.7
20260507152504 74 0.0 0.0 0.00 0.00 0.00 63 1010.8
20260507152004 74 0.0 0.0 0.00 0.00 0.00 65 1010.8
20260507151504 74 0.0 0.0 0.00 0.00 0.00 63 1010.8
20260507151004 74 0.0 0.0 0.00 0.00 0.00 62 1010.8
20260507150504 73 0.0 0.0 0.00 0.00 0.00 64 1010.8
20260507150004 74 0.0 0.0 0.00 0.00 0.00 63 1010.9
20260507145504 73 0.0 0.0 0.00 0.00 0.00 66 1010.9
20260507145004 73 0.0 0.0 0.00 0.00 0.00 67 1011.1
20260507144504 72 0.0 0.0 0.00 0.00 0.00 70 1011.1
20260507144004 72 0.0 0.0 0.00 0.00 0.00 68 1011.3
20260507143504 73 0.0 0.0 0.00 0.00 0.00 67 1011.3
20260507143004 73 0.0 0.0 0.00 0.00 0.00 67 1011.4
20260507142504 71 0.0 0.0 0.00 0.00 0.00 70 1011.5
20260507142004 71 0.0 0.0 0.00 0.00 0.00 71 1011.6
20260507141504 71 0.0 0.0 0.00 0.00 0.00 69 1011.5
20260507141004 72 0.0 0.0 0.00 0.00 0.00 69 1011.5
20260507140504 71 0.0 0.0 0.00 0.00 0.00 69 1011.5
20260507140004 72 0.0 0.0 0.00 0.00 0.00 71 1011.5
20260507135504 72 0.0 0.0 0.00 0.00 0.00 71 1011.7
20260507135004 72 0.0 0.0 0.00 0.00 0.00 69 1011.6
20260507134504 72 0.0 0.0 0.00 0.00 0.00 70 1011.5
20260507134004 71 0.0 0.0 0.00 0.00 0.00 71 1011.5
20260507133504 72 0.0 0.0 0.00 0.00 0.00 71 1011.5
20260507133004 71 0.0 0.0 0.00 0.00 0.00 72 1011.5
20260507132504 71 0.0 0.0 0.00 0.00 0.00 69 1011.4
20260507132004 72 0.0 0.0 0.00 0.00 0.00 69 1011.5
20260507131504 72 0.0 0.0 0.00 0.00 0.00 67 1011.4
20260507131004 73 0.0 0.0 0.00 0.00 0.00 64 1011.4
20260507130504 73 0.0 0.0 0.00 0.00 0.00 61 1011.4
20260507130004 73 0.0 0.0 0.00 0.00 0.00 61 1011.3
20260507125504 74 0.0 0.0 0.00 0.00 0.00 62 1011.3
20260507125004 74 0.0 0.0 0.00 0.00 0.00 62 1011.4
20260507124504 74 0.0 0.0 0.00 0.00 0.00 61 1011.5
20260507124004 73 0.0 0.0 0.00 0.00 0.00 61 1011.5
20260507123505 73 0.0 0.0 0.00 0.00 0.00 62 1011.5
20260507123004 74 0.0 0.0 0.00 0.00 0.00 61 1011.5
20260507122504 75 0.0 0.0 0.00 0.00 0.00 59 1011.5
20260507122004 74 0.0 0.0 0.00 0.00 0.00 61 1011.4
20260507121504 74 0.0 0.0 0.00 0.00 0.00 61 1011.3
20260507121004 72 0.0 0.0 0.00 0.00 0.00 64 1011.3
20260507120504 75 0.0 0.0 0.00 0.00 0.00 61 1011.2
20260507120004 75 0.0 0.0 0.00 0.00 0.00 63 1011.3
20260507115504 76 0.0 0.0 0.00 0.00 0.00 58 1011.1
20260507115004 76 0.0 0.0 0.00 0.00 0.00 63 1011.2
20260507114504 74 0.0 0.0 0.00 0.00 0.00 66 1011.3
20260507114004 73 0.0 0.0 0.00 0.00 0.00 66 1011.2
20260507113504 72 0.0 0.0 0.00 0.00 0.00 66 1011.3
20260507113004 72 0.0 0.0 0.00 0.00 0.00 67 1011.3
20260507112504 71 0.0 0.0 0.00 0.00 0.00 66 1011.4
20260507112004 73 0.0 0.0 0.00 0.00 0.00 60 1011.4
20260507111504 75 0.0 0.0 0.00 0.00 0.00 50 1011.2
20260507111003 80 0.0 0.0 0.00 0.00 0.00 39 1010.7
20260507110503 81 0.0 0.0 0.00 0.00 0.00 37 1010.5
20260507110004 83 0.0 0.0 0.00 0.00 0.00 35 1010.3
20260507105504 84 0.0 0.0 0.00 0.00 0.00 34 1010.4
20260507105004 84 0.0 0.0 0.00 0.00 0.00 35 1010.4
20260507104504 82 0.0 0.0 0.00 0.00 0.00 36 1010.5
20260507104004 83 0.0 0.0 0.00 0.00 0.00 35 1010.6
20260507103504 83 0.0 0.0 0.00 0.00 0.00 35 1010.5
20260507103004 84 0.0 0.0 0.00 0.00 0.00 35 1010.5
20260507102503 82 0.0 0.0 0.00 0.00 0.00 34 1010.6
20260507102003 81 0.0 0.0 0.00 0.00 0.00 36 1010.6
20260507101504 83 0.0 0.0 0.00 0.00 0.00 37 1010.6
20260507101003 81 0.0 0.0 0.00 0.00 0.00 39 1010.8
20260507100503 81 0.0 0.0 0.00 0.00 0.00 38 1010.8
20260507100004 80 0.0 0.0 0.00 0.00 0.00 42 1010.9
20260507095503 79 0.0 0.0 0.00 0.00 0.00 42 1011.0
20260507095003 81 0.0 0.0 0.00 0.00 0.00 40 1010.9
20260507094504 81 0.0 0.0 0.00 0.00 0.00 41 1011.0
20260507094004 77 0.0 0.0 0.00 0.00 0.00 45 1011.1
20260507093504 79 0.0 0.0 0.00 0.00 0.00 44 1011.0
20260507093004 79 0.0 0.0 0.00 0.00 0.00 45 1011.1
20260507092504 78 0.0 0.0 0.00 0.00 0.00 46 1011.1
20260507092003 76 0.0 0.0 0.00 0.00 0.00 47 1011.1
20260507091503 75 0.0 0.0 0.00 0.00 0.00 49 1011.0
20260507091003 75 0.0 0.0 0.00 0.00 0.00 49 1011.1
20260507090504 75 0.0 0.0 0.00 0.00 0.00 50 1011.0
20260507090005 74 0.0 0.0 0.00 0.00 0.00 50 1011.0
20260507085503 74 0.0 0.0 0.00 0.00 0.00 49 1011.1
20260507085003 75 0.0 0.0 0.00 0.00 0.00 48 1011.0
20260507084503 74 0.0 0.0 0.00 0.00 0.00 48 1010.9
20260507084003 74 0.0 0.0 0.00 0.00 0.00 48 1010.8
20260507083503 75 0.0 0.0 0.00 0.00 0.00 48 1010.8
20260507083004 75 0.0 0.0 0.00 0.00 0.00 47 1010.7
20260507082504 75 0.0 0.0 0.00 0.00 0.00 47 1010.7
20260507082004 75 0.0 0.0 0.00 0.00 0.00 47 1010.6
20260507081505 76 0.0 0.0 0.00 0.00 0.00 47 1010.4
20260507081003 77 0.0 0.0 0.00 0.00 0.00 47 1010.5
20260507080503 76 0.0 0.0 0.00 0.00 0.00 49 1010.4
20260507080004 77 0.0 0.0 0.00 0.00 0.00 48 1010.4
20260507075503 78 0.0 0.0 0.00 0.00 0.00 47 1010.3
20260507075003 77 0.0 0.0 0.00 0.00 0.00 49 1010.4
20260507074503 77 0.0 0.0 0.00 0.00 0.00 51 1010.4
20260507074003 76 0.0 0.0 0.00 0.00 0.00 51 1010.3
20260507073503 76 0.0 0.0 0.00 0.00 0.00 51 1010.4
20260507073004 76 0.0 0.0 0.00 0.00 0.00 54 1010.3
20260507072503 75 0.0 0.0 0.00 0.00 0.00 54 1010.5
20260507072003 75 0.0 0.0 0.00 0.00 0.00 55 1010.4
20260507071504 76 0.0 0.0 0.00 0.00 0.00 54 1010.4
20260507071003 75 0.0 0.0 0.00 0.00 0.00 56 1010.4
20260507070503 75 0.0 0.0 0.00 0.00 0.00 57 1010.4
20260507070007 74 0.0 0.0 0.00 0.00 0.00 58 1010.4
20260507065503 74 0.0 0.0 0.00 0.00 0.00 58 1010.3
20260507065004 74 0.0 0.0 0.00 0.00 0.00 59 1010.2
20260507064504 73 0.0 0.0 0.00 0.00 0.00 60 1010.3
20260507064003 73 0.0 0.0 0.00 0.00 0.00 60 1010.3
20260507063503 73 0.0 0.0 0.00 0.00 0.00 61 1010.3
20260507063004 73 0.0 0.0 0.00 0.00 0.00 61 1010.2
20260507062503 73 0.0 0.0 0.00 0.00 0.00 60 1010.2
20260507062003 74 0.0 0.0 0.00 0.00 0.00 61 1010.1
20260507061503 73 0.0 0.0 0.00 0.00 0.00 61 1010.1
20260507061003 72 0.0 0.0 0.00 0.00 0.00 61 1010.1
20260507060003 72 0.0 0.0 0.00 0.00 0.00 62 1010.0
20260507055503 71 0.0 0.0 0.00 0.00 0.00 61 1010.0
20260507055003 71 0.0 0.0 0.00 0.00 0.00 60 1010.0
20260507054503 71 0.0 0.0 0.00 0.00 0.00 59 1010.0
20260507054003 71 0.0 0.0 0.00 0.00 0.00 59 1010.0
20260507053503 72 0.0 0.0 0.00 0.00 0.00 57 1010.0
20260507053004 72 0.0 0.0 0.00 0.00 0.00 55 1009.9
20260507052503 72 0.0 0.0 0.00 0.00 0.00 54 1009.8
20260507052003 72 0.0 0.0 0.00 0.00 0.00 56 1009.8
20260507051503 72 0.0 0.0 0.00 0.00 0.00 55 1009.7
20260507051003 72 0.0 0.0 0.00 0.00 0.00 55 1009.7
20260507050503 72 0.0 0.0 0.00 0.00 0.00 56 1009.5
20260507050003 72 0.0 0.0 0.00 0.00 0.00 57 1009.6
20260507045503 72 0.0 0.0 0.00 0.00 0.00 57 1009.4
20260507045003 71 0.0 0.0 0.00 0.00 0.00 57 1009.5
20260507044503 71 0.0 0.0 0.00 0.00 0.00 58 1009.4
20260507044003 71 0.0 0.0 0.00 0.00 0.00 59 1009.3
20260507043503 71 0.0 0.0 0.00 0.00 0.00 58 1009.3
20260507043003 71 0.0 0.0 0.00 0.00 0.00 58 1009.2
20260507042503 71 0.0 0.0 0.00 0.00 0.00 58 1009.2
20260507042003 71 0.0 0.0 0.00 0.00 0.00 58 1009.2
20260507041503 70 0.0 0.0 0.00 0.00 0.00 59 1009.2
20260507041003 70 0.0 0.0 0.00 0.00 0.00 60 1009.2
20260507040503 70 0.0 0.0 0.00 0.00 0.00 60 1009.2
20260507040004 70 0.0 0.0 0.00 0.00 0.00 60 1009.2
20260507035503 70 0.0 0.0 0.00 0.00 0.00 57 1009.0
20260507035003 71 0.0 0.0 0.00 0.00 0.00 57 1008.8
20260507034503 71 0.0 0.0 0.00 0.00 0.00 57 1008.8
20260507034003 71 0.0 0.0 0.00 0.00 0.00 57 1008.7
20260507033503 71 0.0 0.0 0.00 0.00 0.00 56 1008.8
20260507033003 71 0.0 0.0 0.00 0.00 0.00 57 1008.7
20260507032504 70 0.0 0.0 0.00 0.00 0.00 57 1008.7
20260507032003 70 0.0 0.0 0.00 0.00 0.00 58 1008.7
20260507031503 70 0.0 0.0 0.00 0.00 0.00 58 1008.6
20260507031003 70 0.0 0.0 0.00 0.00 0.00 58 1008.5
20260507030503 70 0.0 0.0 0.00 0.00 0.00 58 1008.4
20260507030003 70 0.0 0.0 0.00 0.00 0.00 57 1008.5
20260507025504 70 0.0 0.0 0.00 0.00 0.00 57 1008.4
20260507025003 71 0.0 0.0 0.00 0.00 0.00 57 1008.4
20260507024503 71 0.0 0.0 0.00 0.00 0.00 57 1008.5
20260507024003 71 0.0 0.0 0.00 0.00 0.00 57 1008.3
20260507023503 71 0.0 0.0 0.00 0.00 0.00 56 1008.3
20260507023003 71 0.0 0.0 0.00 0.00 0.00 56 1008.3
20260507022513 71 0.0 0.0 0.00 0.00 0.00 57 1008.4
20260507022003 72 0.0 0.0 0.00 0.00 0.00 56 1008.3
20260507021503 71 0.0 0.0 0.00 0.00 0.00 56 1008.4
20260507021003 71 0.0 0.0 0.00 0.00 0.00 56 1008.3
20260507020503 72 0.0 0.0 0.00 0.00 0.00 56 1008.3
20260507020003 71 0.0 0.0 0.00 0.00 0.00 56 1008.2
20260507015503 71 0.0 0.0 0.00 0.00 0.00 55 1008.3
20260507015004 71 0.0 0.0 0.00 0.00 0.00 55 1008.2
20260507014503 71 0.0 0.0 0.00 0.00 0.00 56 1008.2
20260507014003 71 0.0 0.0 0.00 0.00 0.00 57 1008.1
20260507013503 71 0.0 0.0 0.00 0.00 0.00 55 1008.2
20260507013003 71 0.0 0.0 0.00 0.00 0.00 56 1008.2
20260507012504 71 0.0 0.0 0.00 0.00 0.00 56 1008.2
20260507012003 72 0.0 0.0 0.00 0.00 0.00 55 1008.0
20260507011503 72 0.0 0.0 0.00 0.00 0.00 54 1007.9
20260507011003 72 0.0 0.0 0.00 0.00 0.00 53 1007.8
20260507010503 72 0.0 0.0 0.00 0.00 0.00 53 1007.8
20260507010003 72 0.0 0.0 0.00 0.00 0.00 52 1007.7
20260507005503 72 0.0 0.0 0.00 0.00 0.00 52 1007.6
20260507005003 71 0.0 0.0 0.00 0.00 0.00 53 1007.6
20260507004503 72 0.0 0.0 0.00 0.00 0.00 52 1007.5
20260507004003 72 0.0 0.0 0.00 0.00 0.00 50 1007.6
20260507003503 72 0.0 0.0 0.00 0.00 0.00 49 1007.7
20260507003003 73 0.0 0.0 0.00 0.00 0.00 45 1007.8
20260507002503 73 0.0 0.0 0.00 0.00 0.00 44 1007.9
20260507002003 73 0.0 0.0 0.00 0.00 0.00 43 1007.9
20260507001503 73 0.0 0.0 0.00 0.00 0.00 44 1007.9
20260507001003 72 0.0 0.0 0.00 0.00 0.00 44 1007.8
20260507000503 72 0.0 0.0 0.00 0.00 0.00 45 1007.8
20260507000003 71 0.0 0.0 0.00 0.00 0.00 45 1007.8
20260506235503 72 0.0 0.0 0.00 0.00 0.00 44 1007.8